Wheeling, WV

8:32 AM EST on December 14, 2019 (GMT -0500)
Wheeling-Ohio County

Weather History for KHLG - October, 2019

Change the Weather History Date:

Friday, October 4, 2019

  Actual Average Record
Temperature  
Mean Temperature 57 °F 58 °F  
Max Temperature 66 °F 67 °F 88 °F (1951)
Min Temperature 47 °F 48 °F 27 °F (1935)
Degree Days  
Heating Degree Days 8 8  
Month to date heating degree days 8 31  
Since 1 July heating degree days 9 132  
Cooling Degree Days 0 1  
Month to date cooling degree days 40 4  
Year to date cooling degree days 986 682  
Growing Degree Days 8 (Base 50)    
Moisture  
Dew Point 48 °F    
Average Humidity 66    
Maximum Humidity 83    
Minimum Humidity 48    
Precipitation  
Precipitation T in 0.08 in 1.80 in (1902)
Month to date precipitation T 0.35  
Year to date precipitation 27.98 30.12  
Sea Level Pressure  
Sea Level Pressure 30.21 in    
Wind  
Wind Speed 9 mph (NNW)    
Max Wind Speed 17 mph    
Max Gust Speed 22 mph    
Visibility 10 miles    
Events      
T = Trace of Precipitation, MM = Missing Value Source: NWS Daily Summary

Daily Weather History Graph

Daily Weather History Graph

Search for Another Location

Airport or City:

Astronomy

Oct. 04, 2019 Rise Set
Actual Time 7:21 AM EDT 7:00 PM EDT
Civil Twilight 6:54 AM EDT 7:27 PM EDT
Nautical Twilight 6:23 AM EDT 7:58 PM EDT
Astronomical Twilight 5:51 AM EDT 8:30 PM EDT
Moon 1:52 PM EDT (10/4) 11:27 PM EDT (10/4)
Length of Visible Light 12h 32m
Length of Day
11h 38m
Waxing Crescent, 39% of the Moon is Illuminated
Oct 4
Waxing Crescent
Oct 5
First Quarter
Oct 13
Full
Oct 21
Last Quarter
Oct 27
New

Hourly Weather History & Observations

Time (EDT) Temp. Dew Point Humidity Pressure Visibility Wind Dir Wind Speed Gust Speed Precip Events Conditions
12:06 AM 68.0 °F 59.0 °F 73% 30.06 in 10.0 mi WNW 13.8 mph 21.9 mph N/A   Partly Cloudy
12:53 AM 64.0 °F 55.0 °F 73% 30.06 in 10.0 mi NW 13.8 mph - N/A   Clear
1:53 AM 62.1 °F 55.0 °F 78% 30.08 in 10.0 mi NW 9.2 mph - N/A   Clear
2:53 AM 60.1 °F 54.0 °F 80% 30.09 in 10.0 mi NW 8.1 mph - N/A   Clear
3:53 AM 59.0 °F 53.1 °F 81% 30.11 in 10.0 mi NW 6.9 mph - N/A   Partly Cloudy
4:53 AM 57.0 °F 51.1 °F 81% 30.12 in 10.0 mi WNW 4.6 mph - N/A   Clear
5:53 AM 55.9 °F 50.0 °F 80% 30.14 in 10.0 mi WNW 6.9 mph - N/A   Clear
6:53 AM 55.0 °F 48.0 °F 77% 30.17 in 10.0 mi NNW 9.2 mph - N/A   Clear
7:53 AM 54.0 °F 48.0 °F 80% 30.19 in 10.0 mi NW 6.9 mph - N/A   Clear
9:53 AM 59.0 °F 48.9 °F 69% 30.24 in 10.0 mi NNW 10.4 mph - 0.00 in   Scattered Clouds
10:53 AM 60.1 °F 46.0 °F 60% 30.24 in 10.0 mi North 15.0 mph - 0.00 in   Overcast
11:53 AM 63.0 °F 46.0 °F 54% 30.25 in 10.0 mi Variable 6.9 mph - N/A   Mostly Cloudy
12:53 PM 66.0 °F 46.0 °F 48% 30.25 in 10.0 mi North 8.1 mph - N/A   Mostly Cloudy
1:53 PM 64.9 °F 48.0 °F 54% 30.25 in 10.0 mi NNW 8.1 mph - N/A   Overcast
2:53 PM 64.9 °F 46.9 °F 52% 30.24 in 10.0 mi North 10.4 mph - N/A   Overcast
3:53 PM 61.0 °F 48.0 °F 62% 30.26 in 10.0 mi North 15.0 mph - N/A   Overcast
4:53 PM 61.0 °F 48.0 °F 62% 30.25 in 10.0 mi North 6.9 mph - N/A   Partly Cloudy
5:53 PM 63.0 °F 46.0 °F 54% 30.25 in 10.0 mi North 12.7 mph - N/A   Overcast
6:53 PM 57.9 °F 45.0 °F 62% 30.27 in 10.0 mi NNE 8.1 mph - N/A   Mostly Cloudy
7:53 PM 55.0 °F 45.0 °F 69% 30.30 in 10.0 mi NNE 13.8 mph - N/A   Clear
8:53 PM 53.1 °F 44.1 °F 71% 30.30 in 10.0 mi North 8.1 mph - N/A   Overcast
9:53 PM 51.1 °F 43.0 °F 74% 30.33 in 10.0 mi NNE 12.7 mph - N/A   Overcast
10:53 PM 48.9 °F 43.0 °F 80% 30.33 in 10.0 mi NNE 9.2 mph - N/A   Clear
11:53 PM 48.0 °F 43.0 °F 83% 30.35 in 10.0 mi NE 6.9 mph - N/A   Clear